Weather in Blyzniuky

Ukraine / Kharkiv Region     48°51′24″N   36°33′17″E
temp.,
°C
wind,
m/s
gust,
m/s
humid.,
%
clouds,
%
prec.,
mm/h
press.,
hPa
HPBL,
m
18 april, sun
sun1800:00+8ssw2369100 0.0 102061
03:00+8ssw1271100 0.0 101914
06:00+7ssw227992 0.0 101919
09:00+9ssw237299 0.1 1019331
12:00+14sw464699 0.3 10172139
15:00+14ssw4544100 0.3 10171775
18:00+13ssw2350100 0.0 1016494
21:00+10nnw366799 0.0 1017200
19 april, mon
mon1900:00+9n237698 0.0 101787
03:00+7nnw2386100 0.0 101844
06:00+6n2390100 0.0 101780
09:00+9nnw2270100 0.0 1017447
12:00+13wnw125496 0.0 10161208
15:00+14w2247100 0.0 10151537
18:00+14w1145100 0.0 10141259
21:00+11nne335799 0.0 101448
20 april, tue
tue2000:00+11ene3667100 0.0 1012147
03:00+10ene5969100 0.0 1010296
06:00+10ene61268100 0.0 1008518
09:00+8ne91591100 4.4 1004528
12:00+10e61297100 11.6 1001650
15:00+10ese2396100 15.3 998202
18:00+13ssw71180100 1.3 9971033
21:00+10s61381100 1.6 999707
21 april, wed
wed2100:00+8s61189100 0.2 1000588
03:00+8w71191100 0.8 10041052
06:00+6w71190100 0.1 1009614
09:00+7wsw687696 0.1 1013856
12:00+7wsw7869100 0.0 10151135
15:00+10w6857100 0.0 10171462
18:00+11w5758100 0.0 10181033
21:00+8wsw2270100 0.0 102015
22 april, thu
thu2200:00+7s227297 0.0 102126
03:00+8s2271100 0.0 102123
06:00+8w2581100 0.2 1022133
09:00+9se237897 0.8 1023280
12:00+15s345153 0.3 10231615
15:00+14sw345399 0.8 1022900
18:00+14s345763 0.5 1022479
21:00+10s3481100 1.8 102367